Location: Unspecified
(0.0000°N, 0.0000°E)
Time: 23:22:22
(UTC+02:00)

Delta 168 - Visible Passes

Search period start: 23 June 2018 00:00
Search period end: 03 July 2018 00:00
Orbit: 394 x 2058 km, 25.3° (Epoch: 23 June)

Date Brightness Start Highest point End Pass type
(mag) Time Alt. Az. Time Alt. Az. Time Alt. Az.
24 Jun 6.4 21:21:11 10° SSW 21:22:32 10° S 21:23:49 10° S visible
25 Jun 6.4 21:07:51 10° SSW 21:10:58 12° S 21:13:46 10° SSE visible
26 Jun 6.3 20:55:01 10° SSW 20:59:21 13° S 21:03:09 10° SSE visible
27 Jun 6.3 20:42:20 10° SSW 20:47:43 15° S 20:52:20 10° SSE visible
27 Jun 6.6 22:41:55 10° SSW 22:43:05 13° SSW 22:43:05 13° SSW visible
28 Jun 6.3 20:29:44 10° SSW 20:36:03 16° S 20:41:24 10° SE visible
28 Jun 6.3 22:29:18 10° SW 22:32:28 18° SSW 22:32:28 18° SSW visible
29 Jun 6.3 20:17:10 10° SSW 20:24:20 18° S 20:30:22 10° SE visible
29 Jun 5.9 22:16:42 10° SW 22:21:56 24° SSW 22:21:56 24° SSW visible
30 Jun 5.6 22:04:08 10° SW 22:11:28 31° S 22:11:28 31° S visible
01 Jul 5.3 21:51:34 10° SW 22:01:07 37° SSE 22:01:07 37° SSE visible
01 Jul 7.0 23:51:02 10° WSW 23:51:05 10° WSW 23:51:05 10° WSW visible
02 Jul 5.1 21:39:02 10° SW 21:49:18 42° SSE 21:50:51 39° SE visible
02 Jul 6.6 23:38:45 10° WSW 23:40:51 17° WSW 23:40:51 17° WSW visible
